Volver al catálogo

THOR AGENA B DEB

ActivoPO
NORAD 511·DEBRIS·🇺🇸 United States

Lanzado Sep 29, 1962 desde Vandenberg Space Force Base

Loading…

Próximos Pases (próximas 24 horas)

TLE

ActualizadoSource: Space-Track

Época: Sep 14, 2026, 07:41 UTC

1 00511U 62049D   26257.32060480  .00000058  00000-0  56287-4 0  9998
2 00511  80.4249 103.4989 0032077 106.8270  13.0376 13.68575738191771

Sigue THOR AGENA B DEB en tiempo real con AllMySat

Download on the App Store